To NAV CANADA Home Page Login to a new session Search on AWWS site Feedback and Comments Disclaimer Vers la page française équivalente Tips FAQ What's new on the site To the Forecasts and Observations / NOTAM section To "File a Flight Plan" website Publications and other links Update of the User's profile FIC Telephone Numbers My Weather Data Folder Route Weather Data Regional Weather Data Local Weather Data To the Forecasts and Observations / NOTAM section
Request Generated 05/22/2015 at 19:04:17 UTC . Weather information available at that time is displayed.

METAR/TAF

SALLUIT/QC    

METAR CYZG 221900Z 21031G40KT 1/2SM SN BLSN OVC011 M03/M04 A2960 RMK BLSN1SC7 TOO WNDY FOR A BLLN SLP044=
METAR CYZG 221800Z 22025G37KT 1/2SM SN BLSN OVC014 M03/M05 A2962 RMK BLSN1SC7 SLP050=
METAR CYZG 221700Z 22025G37KT 1SM -SN BLSN OVC020 M04/M05 A2963 RMK BLSN1SC7 SLP053=

CYZG - No TAF is issued for this station

Your time UTC time
Weather data provided by Environment Canada and NAV CANADA